Location: Molveno
(46.1500°N, 10.9667°E)
Time: 01:05:49
(UTC+00:00)

BREEZE-M DEB (TANK) - Pass Details

Date: 05 July 2020
Orbit: 328 x 12049 km, 49.6° (Epoch: 11 August)

Event Time Altitude Azimuth Distance (km) Brightness Sun altitude
Rises 22:34:24 0° 290° (WNW) 3,453 6.6 -20.4°
Reaches altitude 10° 22:37:38 10° 292° (WNW) 1,835 5.2 -20.5°
Enters shadow 22:40:33 56° 306° (NW) 461 1.9 -20.6°
